{"data":{"norad_id":57214,"epoch":"2026-09-19T00:33:59.509152Z","epoch_age_seconds":145868,"freshness":"FRESH","line1":"1 57214U 23093B   26262.02360543  .00000000  00000+0  00000+0 0  9995","line2":"2 57214   0.0208 170.4878 0000377  91.6515  97.8564  1.00270544  7919","mean_motion":1.00270544,"eccentricity":3.77e-5,"inclination_deg":0.0208,"raan_deg":170.4878,"arg_perigee_deg":91.6515,"mean_anomaly_deg":97.8564,"bstar":0,"rev_number":791,"period_min":1436.1146779058,"perigee_km":35785.353238618,"apogee_km":35788.532485639,"semimajor_km":42165.079862128,"source":"CELESTRAK","updated_at":"2026-09-20T09:00:35.333978Z"}}